This is the latest recevied weather packets stored in our database for station/object S56VIL-11. If no packets are shown the sender has not sent any weather packets the latest 10 day(s).
| Time | Temp. | Humidity | Pressure | Rain* | Wind** | Luminosity | Snow |
|---|---|---|---|---|---|---|---|
| 1777816541 | 21.67° C | 50% | 1030 hPa | - | - | - | - |
| 1777815640 | 21.11° C | 50% | 1030.1 hPa | - | - | - | - |
| 1777814741 | 20° C | 50% | 1030.3 hPa | - | - | - | - |
| 1777813841 | 20° C | 50% | 1030.4 hPa | - | - | - | - |
| 1777812940 | 20.56° C | 50% | 1030.5 hPa | - | - | - | - |
| 1777812040 | 20.56° C | 50% | 1030.5 hPa | - | - | - | - |
| 1777811140 | 20.56° C | 50% | 1030.7 hPa | - | - | - | - |
| 1777810241 | 20.56° C | 50% | 1030.8 hPa | - | - | - | - |
| 1777809340 | 20.56° C | 50% | 1030.6 hPa | - | - | - | - |
| 1777808440 | 20.56° C | 50% | 1030.8 hPa | - | - | - | - |
| 1777807540 | 20.56° C | 50% | 1030.7 hPa | - | - | - | - |
| 1777806640 | 20.56° C | 51% | 1030.9 hPa | - | - | - | - |
| 1777805740 | 20° C | 52% | 1031 hPa | - | - | - | - |
| 1777804841 | 22.22° C | 51% | 1031 hPa | - | - | - | - |
| 1777803941 | 23.33° C | 53% | 1031.1 hPa | - | - | - | - |
| 1777803040 | 24.44° C | 52% | 1031.2 hPa | - | - | - | - |
| 1777802140 | 25° C | 52% | 1031.2 hPa | - | - | - | - |
| 1777801240 | 25° C | 53% | 1031.2 hPa | - | - | - | - |
| 1777800340 | 24.44° C | 52% | 1031.4 hPa | - | - | - | - |
| 1777799440 | 25° C | 52% | 1031.4 hPa | - | - | - | - |
| 1777798540 | 24.44° C | 52% | 1031.5 hPa | - | - | - | - |
| 1777797640 | 24.44° C | 52% | 1031.3 hPa | - | - | - | - |
| 1777796739 | 22.22° C | 54% | 1031.3 hPa | - | - | - | - |
| 1777795839 | 18.89° C | 54% | 1031.4 hPa | - | - | - | - |
| 1777794940 | 16.11° C | 54% | 1031.3 hPa | - | - | - | - |
* Rain since midnight (hover to see other rain measurements)
** Current wind speed in m/s (hover to see current wind gust speed)